Starlink 34604

operational
NORAD ID: 64801 Int'l Des: 2025-150 Owner: SPXS Country: US Constellation: starlink
LEOCIRCULAR

Starlink 34604について

説明を読み込み中...

リアルタイム位置

3D地球を読み込み中...

次回通過

高度履歴

Altitude vs Time

uPlot chart will show altitude changes over time

軌道要素

1 64801U 25150M 25340.53959283 .00077363 00000-0 17481-2 0 9999
2 64801 70.0028 10.5199 0004273 274.6526 85.4168 15.42780655 22538
Epoch: Dec 6, 2025 • Age: 15 hours

現在のステータス

高度 440.2 km
速度 7.65 km/s
衛星直下点 2.00°N, 56.12°E
打ち上げ日 Jul 16, 2025
運用期間 0.3 years
タイプ internet

技術仕様

分類 Payload
質量 575.00 kg
乾燥質量 530.00 kg
総質量 575.00 kg
長さ 0.30 m
直径 4.10 m
スパン 29.00 m
形状 Box + pan
製造者 SPXS
バスタイプ Starlink V2MO
フェーズステータス In Orbit
所有者/国 SPXS/US

大規模コンステレーション

Loading constellations...